Location: 22
(39.7117°N, 89.5929°W)
Time: 08:22:05
(UTC-05:00)

ARIANE 6 FM1 Upper Stage - Pass Details

Date: 11 April 2026
Orbit: 526 x 601 km, 62.0° (Epoch: 18 May)

Event Time Altitude Azimuth Distance (km) Brightness Sun altitude
Rises 21:17:33 0° 254° (WSW) 2,732 6.8 -19.6°
Reaches altitude 10° 21:20:21 10° 274° (W) 1,825 6.2 -20.1°
Maximum altitude 21:23:15 18° 319° (NW) 1,361 5.5 -20.5°
Drops below altitude 10° 21:26:07 10° 4° (N) 1,803 5.6 -21.0°
Sets 21:28:52 0° 23° (NNE) 2,686 6.3 -21.5°
